Location: Asheville, NC
(35.6000°N, 82.5500°W)
Time: 00:43:06
(UTC-04:00)

Vanguard 1 Rocket - Pass Details

Date: 09 March 2018
Orbit: 653 x 4224 km, 34.3° (Epoch: 18 June)

Event Time Altitude Azimuth Distance (km) Brightness Sun altitude
Rises 02:09:55 0° 286° (WNW) 7,068 11.8 -52.7°
Enters shadow 02:11:58 - 284° (WNW) 6,766 11.6 -52.4°
Reaches altitude 10° 02:14:26 10° 281° (W) 6,429 - -52.1°
Maximum altitude 02:35:02 44° 219° (SW) 5,117 - -49.2°
Exits shadow 02:49:30 26° 169° (S) 5,979 11.2 -47.0°
Drops below altitude 10° 02:57:37 10° 156° (SSE) 6,894 11.7 -45.7°
Sets 03:02:51 0° 149° (SSE) 7,579 12.1 -44.8°
